Location: ??????
(36.0418°N, 43.6351°E)
Time: 04:32:16
(UTC+00:00)

Cosmos 883 Rocket - Pass Details

Date: 19 June 2021
Orbit: 950 x 996 km, 83.0° (Epoch: 27 July)

Event Time Altitude Azimuth Distance (km) Brightness Sun altitude
Rises 00:40:35 0° 351° (N) 3,638 8.0 -12.0°
Reaches altitude 10° 00:43:06 10° 349° (N) 2,685 7.2 -11.6°
Maximum altitude 00:49:12 73° 267° (W) 992 4.4 -10.7°
Drops below altitude 10° 00:55:15 10° 183° (S) 2,665 6.4 -9.7°
Sets 00:57:44 0° 181° (S) 3,609 7.1 -9.3°
